| time (UTC) | temp F | wind direction | speed knots | gust knots | rain 1hr in | rain 24hr in | rain mn in | humidity % | barometer mb |
| 20260506164515 | 56 | 326 | 4.3 | 8.7 | 0.02 | 0.02 | 0.02 | 88 | 1014.8 |
| 20260506163016 | 56 | 340 | 2.6 | 7.8 | 0.01 | 0.01 | 0.01 | 89 | 1014.8 |
| 20260506161514 | 56 | 22 | 1.7 | 4.3 | 0.01 | 0.01 | 0.01 | 89 | 1015.1 |
| 20260506160020 | 56 | 329 | 0.9 | 5.2 | 0.00 | 0.00 | 0.00 | 88 | 1015.5 |
| 20260506154517 | 55 | 5 | 4.3 | 8.7 | 0.00 | 0.00 | 0.00 | 87 | 1014.3 |
| 20260506153014 | 55 | 333 | 4.3 | 7.8 | 0.00 | 0.00 | 0.00 | 87 | 1014.2 |
| 20260506151517 | 55 | 340 | 3.5 | 7.0 | 0.00 | 0.00 | 0.00 | 88 | 1013.9 |
| 20260506150009 | 55 | 352 | 3.5 | 10.4 | 0.00 | 0.00 | 0.00 | 87 | 1013.7 |
| 20260506144515 | 55 | 331 | 2.6 | 7.8 | 0.00 | 0.00 | 0.00 | 88 | 1013.7 |
| 20260506143017 | 55 | 352 | 5.2 | 8.7 | 0.00 | 0.00 | 0.00 | 87 | 1013.3 |
| 20260506141515 | 54 | 336 | 5.2 | 9.6 | 0.00 | 0.00 | 0.00 | 87 | 1013.1 |
| 20260506140018 | 54 | 301 | 6.1 | 10.4 | 0.00 | 0.00 | 0.00 | 86 | 1012.9 |
| 20260506134509 | 55 | 5 | 2.6 | 7.8 | 0.00 | 0.00 | 0.00 | 86 | 1012.9 |
| 20260506133018 | 55 | 5 | 4.3 | 10.4 | 0.00 | 0.00 | 0.00 | 85 | 1012.9 |
| 20260506131537 | 55 | 335 | 5.2 | 9.6 | 0.00 | 0.00 | 0.00 | 85 | 1012.9 |
| 20260506130033 | 55 | 352 | 7.0 | 12.2 | 0.00 | 0.00 | 0.00 | 84 | 1012.9 |
| 20260506124520 | 55 | 348 | 4.3 | 8.7 | 0.00 | 0.00 | 0.00 | 85 | 1012.9 |
| 20260506123016 | 55 | 314 | 4.3 | 9.6 | 0.00 | 0.00 | 0.00 | 84 | 1012.3 |
| 20260506121522 | 55 | 348 | 3.5 | 9.6 | 0.00 | 0.00 | 0.00 | 84 | 1012.1 |
| 20260506120021 | 55 | 351 | 4.3 | 9.6 | 0.00 | 0.00 | 0.00 | 83 | 1011.7 |
| 20260506114523 | 56 | 286 | 1.7 | 9.6 | 0.00 | 0.00 | 0.00 | 82 | 1011.4 |
| 20260506113024 | 57 | 329 | 4.3 | 12.2 | 0.00 | 0.00 | 0.00 | 80 | 1011.2 |
| 20260506111518 | 57 | 321 | 1.7 | 7.0 | 0.00 | 0.00 | 0.00 | 80 | 1010.7 |
| 20260506110020 | 57 | 329 | 2.6 | 8.7 | 0.00 | 0.00 | 0.00 | 81 | 1010.4 |
| 20260506104521 | 57 | 10 | 5.2 | 8.7 | 0.00 | 0.00 | 0.00 | 81 | 1010.2 |
| 20260506103032 | 58 | 324 | 3.5 | 7.0 | 0.00 | 0.00 | 0.00 | 80 | 1010.1 |
| 20260506101516 | 58 | 331 | 2.6 | 5.2 | 0.00 | 0.00 | 0.00 | 80 | 1010.0 |
| 20260506100027 | 58 | 333 | 2.6 | 7.8 | 0.00 | 0.00 | 0.00 | 79 | 1010.0 |
| 20260506094530 | 58 | 322 | 2.6 | 8.7 | 0.00 | 0.00 | 0.00 | 79 | 1009.9 |
| 20260506093030 | 58 | 20 | 2.6 | 7.8 | 0.00 | 0.00 | 0.00 | 79 | 1009.7 |
| 20260506091527 | 58 | 352 | 3.5 | 8.7 | 0.00 | 0.00 | 0.00 | 79 | 1009.4 |
| 20260506090019 | 58 | 327 | 1.7 | 7.0 | 0.00 | 0.00 | 0.00 | 80 | 1009.3 |
| 20260506084504 | 58 | 350 | 3.5 | 7.0 | 0.00 | 0.00 | 0.00 | 81 | 1009.4 |
| 20260506083008 | 59 | 12 | 2.6 | 6.1 | 0.00 | 0.00 | 0.00 | 81 | 1009.3 |
| 20260506081512 | 59 | 324 | 2.6 | 7.0 | 0.00 | 0.00 | 0.00 | 81 | 1009.4 |
| 20260506073008 | 61 | 314 | 2.6 | 6.1 | 0.00 | 0.00 | 0.00 | 80 | 1009.3 |
| 20260506071511 | 61 | 326 | 3.5 | 7.0 | 0.00 | 0.00 | 0.00 | 80 | 1009.1 |
| 20260506061509 | 62 | 11 | 3.5 | 7.8 | 0.00 | 0.00 | 0.00 | 80 | 1009.1 |
| 20260506044513 | 69 | 304 | 2.6 | 9.6 | 0.00 | 0.00 | 0.00 | 78 | 1008.5 |
| 20260506043020 | 71 | 339 | 4.3 | 8.7 | 0.00 | 0.00 | 0.00 | 78 | 1008.1 |
| 20260506041522 | 72 | 352 | 3.5 | 7.0 | 0.00 | 0.00 | 0.00 | 78 | 1007.7 |
| 20260506040027 | 75 | 11 | 3.5 | 10.4 | 0.00 | 0.00 | 0.00 | 82 | 1007.7 |
| 20260506034513 | 75 | 313 | 0.0 | 1.7 | 0.00 | 0.00 | 0.00 | 85 | 1007.4 |
| 20260506033017 | 75 | 264 | 0.0 | 1.7 | 0.00 | 0.00 | 0.00 | 86 | 1007.3 |
| 20260506031522 | 75 | 333 | 0.0 | 1.7 | 0.00 | 0.00 | 0.00 | 85 | 1006.8 |
| 20260506030034 | 76 | 329 | 0.0 | 1.7 | 0.00 | 0.00 | 0.00 | 84 | 1006.3 |
| 20260506024523 | 76 | 281 | 0.0 | 0.0 | 0.00 | 0.00 | 0.00 | 83 | 1006.1 |
| 20260506023015 | 76 | 178 | 0.0 | 0.9 | 0.00 | 0.00 | 0.00 | 82 | 1005.9 |
| 20260506021522 | 76 | 165 | 0.0 | 1.7 | 0.00 | 0.00 | 0.00 | 82 | 1005.7 |
| 20260506020026 | 77 | 259 | 0.9 | 2.6 | 0.00 | 0.00 | 0.00 | 81 | 1005.8 |
| 20260506014532 | 76 | 201 | 0.9 | 5.2 | 0.00 | 0.00 | 0.00 | 81 | 1005.0 |
| 20260506013013 | 77 | 133 | 0.9 | 2.6 | 0.00 | 0.00 | 0.00 | 81 | 1005.4 |
| 20260506011520 | 77 | 202 | 0.9 | 3.5 | 0.00 | 0.00 | 0.00 | 79 | 1005.5 |
| 20260506010030 | 78 | 220 | 0.9 | 4.3 | 0.00 | 0.00 | 0.00 | 79 | 1005.3 |
| 20260506004527 | 78 | 175 | 0.9 | 2.6 | 0.00 | 0.00 | 0.00 | 78 | 1005.1 |
| 20260506003015 | 79 | 227 | 1.7 | 4.3 | 0.00 | 0.00 | 0.00 | 76 | 1005.2 |
| 20260506001518 | 79 | 221 | 1.7 | 5.2 | 0.00 | 0.00 | 0.00 | 75 | 1005.0 |
| 20260506000023 | 80 | 198 | 1.7 | 5.2 | 0.00 | 0.00 | 0.00 | 75 | 1005.0 |
| 20260505234530 | 80 | 209 | 2.6 | 5.2 | 0.00 | 0.00 | 0.00 | 74 | 1004.9 |
| 20260505233026 | 81 | 260 | 0.9 | 7.8 | 0.00 | 0.00 | 0.00 | 74 | 1004.9 |
| 20260505231516 | 82 | 224 | 1.7 | 7.8 | 0.00 | 0.00 | 0.00 | 73 | 1004.8 |
| 20260505230041 | 81 | 146 | 2.6 | 7.8 | 0.00 | 0.00 | 0.00 | 73 | 1004.8 |
| 20260505224524 | 81 | 198 | 2.6 | 8.7 | 0.00 | 0.00 | 0.00 | 73 | 1004.7 |
| 20260505223025 | 81 | 234 | 2.6 | 8.7 | 0.00 | 0.00 | 0.00 | 72 | 1004.6 |
| 20260505221512 | 82 | 169 | 4.3 | 7.8 | 0.00 | 0.00 | 0.00 | 73 | 1004.8 |
| 20260505220029 | 83 | 225 | 5.2 | 11.3 | 0.00 | 0.00 | 0.00 | 68 | 1004.9 |
| 20260505214505 | 82 | 206 | 5.2 | 14.8 | 0.00 | 0.00 | 0.00 | 71 | 1004.9 |
| 20260505213010 | 82 | 194 | 4.3 | 11.3 | 0.00 | 0.00 | 0.00 | 71 | 1004.9 |
| 20260505211514 | 82 | 151 | 7.0 | 13.0 | 0.00 | 0.00 | 0.00 | 71 | 1004.9 |
| 20260505210015 | 83 | 200 | 5.2 | 13.0 | 0.00 | 0.00 | 0.00 | 70 | 1005.0 |
| 20260505204502 | 82 | 188 | 3.5 | 10.4 | 0.00 | 0.00 | 0.00 | 72 | 1005.1 |
| 20260505203003 | 82 | 209 | 4.3 | 12.2 | 0.00 | 0.00 | 0.00 | 71 | 1005.2 |
| 20260505201513 | 81 | 192 | 7.0 | 13.0 | 0.00 | 0.00 | 0.00 | 72 | 1005.3 |
| 20260505200015 | 81 | 230 | 3.5 | 13.9 | 0.00 | 0.00 | 0.00 | 73 | 1005.3 |
| 20260505184517 | 79 | 161 | 3.5 | 12.2 | 0.00 | 0.00 | 0.00 | 73 | 1005.6 |
| 20260505180043 | 79 | 215 | 7.8 | 17.4 | 0.00 | 0.00 | 0.00 | 71 | 1006.0 |
| 20260505174537 | 79 | 198 | 5.2 | 14.8 | 0.00 | 0.00 | 0.00 | 73 | 1006.2 |
| 20260505173021 | 79 | 239 | 6.1 | 19.1 | 0.00 | 0.00 | 0.00 | 73 | 1006.4 |
| 20260505171530 | 78 | 201 | 5.2 | 15.6 | 0.00 | 0.00 | 0.00 | 74 | 1006.1 |
| 20260505170007 | 77 | 201 | 6.1 | 19.1 | 0.00 | 0.00 | 0.00 | 76 | 1006.1 |